Ana Sayfa
METAR-TAF:

METAR-TAF

Havaalanları :

Ingalls Field

Hot Springs, Virginia, Amerika Birleşik Devletleri

Enlem: 37-57N, Boylam: 079-50W, yükseklik: 1156 m

Güncel hava durumu gözlemi

Rapor saat 00:35 UTC de 19 dakika önce yapıldı.
Rüzgar güneydoğudan 10 kt
Sıcaklık -5°C
Nem 93%
Basınç 1029 hPa
Görüş mesafesi: 16.1 km
Açık gökyüzü

METAR: KHSP 130035Z AUTO 13010KT 10SM CLR M05/M06 A3038 RMK AO2 T10501062

Saat: 19:54 (00:54 UTC)


TAF: eksik

4.000'den fazla havaalanı için hava durumu gözlemleri ve tahminleri (METAR ve TAF raporları).

Kullanılabilir istasyonlar harita üzerinde sarı ve kırmızı noktalarla gösterilir.

İstasyonun adını görmek için fareyi noktanın üzerinde gezdirin.

Sonrasında hava gözlem ve tahminlerini görmek için tıklayın.

Haritayı değiştirmek için: yaklaştırmak için siyah artı işaretli yeşil düğmeye ve uzaklaştırmak için de eksi işaretli düğmeye hızla tıklayın; bitişik haritalar için yeşil okları kullanın.


METAR-TAF: